Unalaska Airport

Airport
ICAO code: 
PADU
IATA Code: 
DUT
Summary
ICAO Region: 
NAM
Territory: 
Location: 
Unalaska Island,
Serving: 
Unalaska Island
Coordinates: 
Aerial View: 
53° 53' 56.148" N, 166° 32' 40.848" W
Airport BS: 
Bird Strike, Non Avian Wildlife Hazards to Aircraft
Airport WX: 
Fog
Metar
Observation
PADU 261056Z AUTO 03012G18KT 10SM BKN033 00/M06 A3022 RMK AO2 SLP239 T00001061 FZRANO PNO $
Station
Unalaska, Unalaska Airport
Date/Time
2022-01-26 10:56:00
Wind direction
30°
Wind speed
12 kts
Lowest cloud amount
broken clouds
Temperature
0°C
Dew point
-6.1°C
Humidity
63%
Weather condition
n/a

Description

Regional airport serving Unalaska, Alaska which is located on Unalaska Island and neighboring Amaknak Island in the Aleutian Island chain.

Climatology

Subpolar oceanic climate(Köppen climate classification Cfc) - moderate and fairly uniform temperatures and heavy rainfall. Fog is often present even when it is not raining. Summer weather is around 5 °F (2.8 °C) cooler than Southeast Alaska (Sitka), but the winter temperatures are nearly the same.

Runways

Designator Length Width Surface Rops
12/30 1189 30 ASP Yes/Yes
Airport map: 
Aerial View: 

Accidents and Serious Incidents at or in the vicinity of PADU

SKYbrary Partners:

Safety knowledge contributed by: